Wind_Speed
29 28 28 28 27 27 26 25 24 23 23 23 23 23 23 22 21 21 20 19 19 19 18 17 16 16 16 15 15 15 14 14 13 13 12 12 11 10 9 9 9 8 8 7 7 7 8 8 8 8 8 7 7 7 7 7 7 7 7 7 7 6 6 6 6 6 5 5 5
29 29 28 28 27 27 26 25 24 23 22 22 22 23 23 22 21 21 20 19 18 18 17 17 17 17 17 16 15 15 14 14 14 13 13 12 11 10 10 10 9 9 8 8 8 8 8 8 8 8 8 7 7 7 7 6 6 6 7 6 6 5 5 5 5 5 5 4 4
30 29 29 28 27 27 27 26 25 24 23 22 22 22 22 22 21 21 20 20 19 18 18 18 18 18 17 17 15 15 14 14 14 14 13 13 12 11 10 10 10 9 9 9 9 8 8 8 8 8 7 7 7 7 7 6 5 5 6 5 5 4 4 4 4 4 4 4 4
30 30 29 29 29 28 28 28 27 26 24 24 23 23 23 22 22 21 21 20 20 20 20 20 19 19 18 17 16 15 15 15 14 14 14 13 12 11 11 10 10 10 9 9 9 9 8 8 8 8 7 7 7 6 6 5 5 5 4 4 4 4 4 4 4 4 4 4 4
31 31 31 30 30 29 29 29 28 27 26 25 25 24 24 23 23 22 22 22 22 21 21 20 20 19 19 18 17 16 16 15 15 15 14 13 12 12 11 11 10 10 10 9 9 9 9 8 8 8 7 7 6 6 5 4 4 4 3 3 2 3 3 3 3 4 4 4 4
32 31 31 31 30 30 29 29 28 28 27 27 26 25 25 25 24 24 24 24 23 22 21 21 20 20 19 19 18 18 17 16 16 15 15 14 13 12 12 11 11 10 10 10 9 9 9 8 8 8 7 7 6 5 5 4 3 3 3 2 1 1 2 3 3 3 4 4 4
32 32 31 31 31 30 30 29 29 29 28 28 27 27 27 26 26 25 25 24 23 23 22 22 21 21 20 20 20 19 18 18 17 16 15 15 14 13 13 12 12 11 11 10 10 9 9 8 8 8 7 7 6 5 5 4 3 3 3 3 2 1 1 2 2 3 3 4 4
32 32 31 31 31 31 30 30 30 29 29 28 28 27 28 27 27 26 25 25 24 24 23 22 22 21 21 21 21 20 20 19 18 17 16 16 15 14 14 13 13 12 12 11 10 10 9 9 8 8 7 6 6 5 5 4 3 3 4 4 3 1 0 1 2 2 3 3 3
31 31 31 31 31 31 31 30 30 30 29 29 28 28 28 28 27 27 26 26 25 24 23 22 22 21 21 21 21 21 21 20 19 19 18 17 16 15 15 14 14 13 13 12 11 10 10 9 9 8 7 6 6 5 5 4 4 4 4 4 3 2 1 1 1 1 2 2 2
31 30 30 30 30 30 30 30 30 30 29 28 28 28 28 28 27 27 27 26 25 24 23 22 22 21 22 22 22 22 21 21 20 20 19 18 17 17 16 15 15 14 13 13 12 11 10 10 9 8 8 7 6 5 5 5 5 5 4 4 3 3 3 2 1 1 0 1 2
31 31 30 30 30 30 29 29 29 28 28 28 28 27 27 27 27 27 26 25 25 24 23 22 22 22 22 23 22 22 22 21 21 20 20 19 18 17 17 16 15 15 14 13 13 12 11 10 10 9 8 8 7 6 6 5 5 5 4 4 3 3 3 3 2 1 0 1 2
31 30 30 29 29 29 29 28 28 27 27 27 27 27 27 26 26 26 25 25 24 23 22 22 22 22 23 23 23 22 22 22 21 21 21 20 19 18 18 17 16 15 14 14 13 13 12 11 11 10 9 9 8 7 6 5 5 4 4 4 3 3 3 3 2 1 0 1 2
31 30 29 29 29 28 28 28 27 27 26 26 26 26 26 25 25 25 25 25 24 23 22 21 22 22 23 23 23 23 22 22 22 21 21 21 20 19 18 18 17 16 15 14 14 13 13 12 11 10 10 9 8 7 6 5 4 4 4 4 3 3 2 2 1 1 1 1 2
31 30 29 29 28 28 28 27 26 26 25 25 25 25 25 25 25 25 25 24 23 22 22 22 22 22 23 23 23 23 23 22 22 21 21 21 20 20 19 18 17 16 16 15 14 14 13 12 12 11 10 9 8 7 6 5 5 4 4 3 3 2 2 1 1 1 1 1 2
30 30 30 29 28 28 27 27 26 25 25 25 25 25 25 25 24 24 24 23 22 22 22 23 23 23 23 22 22 22 22 22 22 21 21 21 20 20 19 18 18 17 16 16 15 14 13 13 12 11 10 9 8 7 6 5 5 4 4 3 3 2 1 1 0 0 1 1 2
30 30 30 29 28 28 27 26 26 25 25 25 25 25 25 25 24 24 23 23 23 23 23 24 24 23 22 22 22 22 22 21 21 21 21 21 20 20 19 18 18 17 17 16 15 14 13 13 12 11 10 9 8 7 6 6 5 4 4 3 2 2 1 1 1 1 1 2 2
30 30 30 29 29 28 27 26 26 25 25 25 25 25 25 25 24 23 23 23 24 24 25 25 24 23 22 22 21 21 21 21 21 21 20 20 20 19 19 18 18 17 16 16 15 14 13 12 11 11 10 9 8 7 6 6 5 4 4 3 3 2 2 2 2 2 2 3 3
30 30 30 29 29 28 27 27 26 26 26 26 25 25 25 25 24 24 23 24 24 25 25 25 24 23 22 22 21 21 21 21 21 20 20 19 19 18 18 17 17 16 16 15 14 13 13 12 11 10 10 9 8 7 6 6 5 4 4 3 3 3 2 2 3 3 3 3 3
30 29 29 29 28 28 27 27 26 26 26 26 26 25 25 25 24 24 24 24 24 25 25 25 23 23 22 22 22 21 21 20 20 20 19 18 17 17 16 16 15 15 14 14 13 13 12 11 11 10 9 9 8 7 6 5 5 4 4 4 3 3 3 3 3 3 3 4 4
29 29 29 29 28 28 27 27 27 26 26 26 26 25 25 25 24 24 24 24 24 24 25 24 23 23 22 22 21 20 20 19 19 19 18 17 16 16 15 14 14 14 13 13 12 12 11 10 10 9 8 8 7 6 6 5 5 4 4 4 3 3 3 3 3 4 4 4 4
29 29 29 28 28 27 27 27 27 27 26 26 26 25 25 25 25 24 24 24 24 24 24 24 23 23 22 22 21 20 19 18 18 18 17 17 16 15 14 14 13 13 12 12 11 10 10 9 9 8 7 7 6 5 5 4 4 4 4 3 3 3 3 4 4 4 5 5 5
28 28 28 28 27 27 27 27 27 27 27 27 26 26 26 25 25 24 24 24 23 23 23 23 23 23 22 22 21 20 19 18 18 17 17 16 16 15 14 14 13 12 12 11 10 10 9 8 8 7 7 6 5 5 4 4 4 4 3 3 3 3 4 4 5 5 6 6 6
27 27 27 27 27 27 27 28 28 28 28 27 27 26 26 26 25 25 24 23 23 23 22 22 22 22 22 21 20 20 19 18 17 17 16 16 16 15 14 13 13 12 11 11 10 10 9 9 8 7 6 5 5 4 4 4 4 4 4 4 4 4 4 5 5 6 6 7 7
27 27 27 27 28 28 28 29 29 29 28 28 27 27 27 26 26 25 24 23 23 22 22 22 22 21 21 21 20 19 19 18 18 17 16 16 15 14 14 13 12 12 11 11 10 10 10 9 9 8 7 6 5 5 5 5 5 5 5 5 5 5 5 6 6 6 7 6 6
28 28 28 28 28 29 29 29 29 29 29 28 28 28 27 27 26 25 25 24 23 22 22 22 21 21 21 20 19 18 18 18 17 17 16 15 14 13 13 12 12 11 11 11 10 10 10 10 10 9 9 8 8 7 7 7 6 6 6 6 6 6 7 7 7 7 6 6 6
29 29 29 29 29 29 30 30 29 29 29 28 28 28 27 27 26 26 25 24 23 23 22 22 21 21 20 20 19 18 17 17 17 16 15 15 14 13 12 12 11 11 11 10 10 9 9 9 9 10 10 10 10 10 10 9 8 7 7 7 7 8 8 8 8 7 6 5 6
29 30 29 30 30 30 30 29 29 29 29 28 28 28 27 27 26 26 25 25 24 23 23 22 21 21 20 19 19 18 17 17 16 15 15 14 13 12 11 11 11 11 10 9 9 9 9 9 9 9 10 10 11 11 11 10 9 9 8 8 8 8 8 8 7 6 6 6 6
30 30 30 30 29 29 29 29 29 29 28 28 28 28 27 27 26 26 25 25 24 23 23 22 21 21 20 19 18 18 17 16 15 14 14 13 12 11 11 10 10 9 9 8 8 8 8 8 8 8 9 9 10 10 10 10 10 9 9 8 8 8 8 7 7 7 7 7 8
30 30 30 29 29 29 29 29 29 29 28 28 28 28 27 27 26 26 25 25 24 23 22 22 21 20 19 19 18 17 16 15 14 13 12 12 11 10 9 9 8 8 8 7 7 7 7 7 7 8 8 8 8 8 8 8 8 8 8 8 7 7 8 8 8 8 9 9 9
30 29 29 29 29 28 28 29 29 29 28 28 28 28 27 27 26 26 25 24 23 23 22 21 20 19 19 18 17 16 15 14 13 12 11 10 10 9 9 8 8 7 7 6 6 6 6 6 7 7 7 7 7 7 7 7 7 7 7 7 7 8 8 9 9 10 10 10 10
29 29 29 29 28 28 28 28 28 29 28 28 28 28 27 26 26 25 24 24 23 22 21 20 19 18 18 16 15 14 14 13 12 11 10 9 9 9 9 9 8 8 7 6 5 5 6 6 7 7 7 7 7 6 6 6 6 6 7 8 8 9 9 10 10 11 11 11 10
29 29 28 28 28 28 28 28 28 28 28 28 28 27 26 25 24 24 23 23 22 21 20 19 18 17 16 15 14 13 12 11 10 9 9 8 9 9 9 10 9 8 7 6 5 5 6 6 7 7 6 6 6 5 5 5 5 6 7 8 8 9 10 10 11 11 12 11 11
28 28 28 28 28 28 28 28 28 28 28 28 27 26 25 24 23 22 22 21 21 20 19 18 17 16 15 13 12 11 10 9 8 8 7 7 7 8 8 9 9 8 7 6 5 6 6 6 6 6 6 5 5 5 4 4 5 5 6 7 8 9 10 11 12 12 12 12 12
27 27 27 27 27 27 27 27 28 28 27 27 26 25 24 23 22 22 21 20 19 18 17 16 15 14 13 12 11 10 9 8 7 6 6 6 6 6 7 8 8 8 7 6 5 6 6 6 6 6 5 5 5 4 4 4 4 5 5 6 7 8 9 10 11 12 12 12 12
27 27 27 27 27 27 27 27 27 27 27 26 25 24 23 23 22 21 21 20 19 17 16 15 14 14 13 12 11 10 9 8 7 6 6 6 5 6 6 7 7 7 6 5 5 5 5 5 5 5 5 5 5 4 4 4 4 5 5 6 7 8 10 10 11 12 12 12 12
27 27 27 27 27 27 27 27 27 27 26 26 25 24 23 22 22 21 20 19 18 17 16 16 14 13 12 11 10 9 8 8 7 7 7 6 6 6 6 7 7 7 6 6 5 5 5 4 4 5 5 5 5 5 5 5 5 5 6 7 8 9 10 10 11 12 12 12 13
26 27 27 28 28 28 27 27 27 27 26 25 25 24 23 22 21 20 18 18 17 17 16 15 14 12 11 10 9 8 8 7 7 7 7 7 6 6 7 7 7 8 7 7 6 5 5 5 5 5 5 6 6 6 6 7 7 7 7 8 9 9 10 10 11 11 12 13 13
26 27 27 28 28 28 27 27 27 26 25 25 24 23 22 21 20 18 17 16 15 15 14 13 12 11 10 9 8 8 7 7 7 7 7 7 7 7 7 7 7 7 7 7 6 6 5 5 5 6 6 7 7 7 8 8 8 8 9 9 10 10 10 10 11 12 12 13 13
25 26 27 28 28 27 27 26 26 25 25 24 23 22 21 20 18 17 15 14 13 13 12 11 11 10 9 8 8 8 7 7 7 7 7 7 7 7 7 6 6 6 6 6 6 6 6 6 6 7 7 8 9 9 9 9 9 9 10 10 10 11 11 11 11 12 12 13 13
24 25 26 27 27 26 26 25 24 24 23 23 21 20 19 18 17 16 14 13 12 11 11 11 10 9 9 8 8 7 7 6 6 6 6 6 6 6 6 6 6 6 6 6 6 6 7 7 7 8 8 9 10 10 10 10 10 10 11 11 11 11 11 11 11 11 12 12 13
23 24 25 25 26 25 25 24 23 22 21 21 20 18 17 16 15 14 13 12 12 11 11 10 10 9 9 8 7 7 7 6 6 6 6 6 6 6 6 6 6 6 6 7 7 7 8 8 8 8 9 10 11 11 11 11 11 11 12 12 11 11 11 11 11 11 12 12 13
Wind_Direction
186 189 193 195 195 195 195 196 198 201 201 199 196 196 197 199 200 201 203 204 204 204 204 204 202 200 200 202 202 202 201 202 204 207 208 208 205 202 199 199 198 197 193 189 183 177 170 165 159 152 145 137 127 120 115 110 104 98 92 85 77 70 63 56 46 43 43 42 41
187 191 194 196 196 195 194 193 195 198 200 200 199 199 200 201 201 202 202 203 203 203 201 200 199 199 200 202 203 202 202 202 204 206 208 209 206 203 200 199 199 198 195 191 185 179 172 166 161 154 148 143 134 127 123 118 111 103 96 89 79 71 64 56 44 39 39 39 38
189 191 194 195 194 193 191 190 193 195 197 197 198 198 199 201 202 201 200 200 199 199 198 198 198 198 200 201 201 201 201 202 203 205 207 208 206 203 200 199 198 197 195 192 186 179 173 168 162 156 150 144 138 133 129 127 120 110 103 95 82 72 66 59 46 38 37 37 35
189 191 193 194 194 194 193 193 193 194 195 195 195 195 196 198 199 199 198 197 197 197 198 198 198 199 200 200 199 199 199 200 202 204 206 207 205 202 200 198 197 196 193 190 184 178 172 168 163 158 152 147 141 138 136 134 130 122 113 102 87 73 63 54 43 39 37 38 34
190 192 194 195 196 197 197 197 196 196 196 195 194 193 194 196 197 197 196 196 196 198 200 200 199 199 199 200 199 197 197 198 200 202 204 204 203 200 198 196 194 192 189 186 180 175 171 167 163 159 156 152 150 147 146 144 140 134 127 113 92 74 60 52 45 40 38 39 35
191 193 195 196 197 198 199 199 199 198 198 197 195 194 194 196 197 197 197 197 198 200 201 201 200 200 199 199 198 197 196 196 198 200 202 201 199 197 195 193 190 188 184 180 177 174 171 167 164 162 161 161 159 159 160 160 155 147 142 138 123 78 63 59 50 43 40 40 37
191 192 194 195 196 197 198 199 199 200 200 199 198 197 197 199 200 200 200 201 201 201 201 201 201 200 199 198 198 197 196 195 196 198 199 198 196 194 192 190 187 183 180 177 175 174 173 171 167 167 168 170 169 169 172 175 174 166 164 171 185 166 80 73 52 44 42 41 37
191 192 193 194 196 197 198 199 199 199 200 200 201 201 202 203 202 202 202 203 202 202 203 202 202 201 200 199 198 196 195 194 194 195 195 195 193 192 190 188 184 180 178 177 176 175 176 176 174 174 177 181 180 180 182 189 194 189 184 188 202 208 147 76 52 44 42 39 38
190 191 193 194 196 197 199 200 201 201 201 202 203 204 205 205 204 204 203 203 205 206 205 204 203 202 201 200 198 196 195 193 193 192 192 191 191 189 188 186 182 179 178 177 177 177 178 179 180 182 186 192 193 192 195 203 208 205 199 200 198 193 167 96 68 53 40 38 41
190 191 191 193 195 197 199 200 202 203 203 202 203 204 204 205 205 205 205 205 206 207 205 204 202 200 199 199 198 196 194 193 192 190 189 188 188 187 186 184 181 179 178 178 178 179 180 183 184 187 193 200 204 207 210 216 218 214 209 206 194 180 166 156 157 156 57 36 45
190 191 191 192 194 196 198 199 200 201 202 201 202 202 203 203 204 204 206 207 205 205 204 204 201 199 197 197 196 194 192 191 190 189 187 185 185 185 184 183 181 180 179 179 180 181 182 185 188 191 197 205 210 215 219 223 225 219 212 204 192 182 180 181 182 184 138 39 41
191 191 191 192 194 195 196 197 198 198 199 199 200 200 201 201 201 203 204 204 203 203 203 202 199 196 195 194 193 191 190 188 188 187 185 183 183 182 182 182 181 180 180 181 182 183 185 188 192 195 201 207 212 217 220 223 222 216 207 199 194 189 189 187 183 166 77 34 31
191 191 191 191 193 194 195 195 196 196 196 197 198 198 198 197 199 200 201 201 201 200 198 196 194 193 191 191 190 189 187 187 186 186 184 182 181 181 180 181 180 180 181 183 184 186 188 191 195 199 204 209 214 216 216 215 211 205 198 194 193 194 192 189 169 127 62 31 17
191 191 191 191 192 192 193 193 193 193 193 194 194 194 193 193 195 197 198 198 197 195 192 189 188 188 189 189 188 187 186 186 186 185 184 182 181 180 180 180 180 180 182 184 186 189 191 194 197 201 204 209 212 212 208 204 198 194 191 189 190 192 191 181 143 89 48 22 6
190 191 191 191 191 191 191 190 190 190 190 190 190 190 189 188 191 193 194 194 192 190 187 183 182 184 186 187 187 186 186 185 185 185 183 182 180 179 179 179 180 180 182 185 188 191 193 196 198 201 203 205 206 202 196 192 188 184 184 185 187 190 194 200 215 3 354 344 344
189 190 190 190 190 189 189 188 188 187 186 186 186 186 185 185 187 188 189 188 187 185 182 180 179 181 184 186 186 186 185 185 185 184 183 182 180 180 179 179 180 181 183 186 189 191 193 195 196 197 198 198 196 191 186 183 181 180 181 185 190 198 213 235 267 289 296 303 312
188 189 189 189 189 188 187 187 186 185 184 183 183 183 182 182 183 183 184 185 183 180 178 178 179 180 181 183 184 184 184 184 184 184 184 183 181 181 180 181 182 183 185 187 189 191 191 190 190 190 190 188 185 182 180 178 178 180 182 189 197 211 226 244 259 270 279 284 289
187 187 188 188 187 187 186 186 185 183 183 182 181 181 181 180 179 179 181 182 180 177 175 176 178 179 180 180 181 182 182 183 183 184 184 184 183 182 182 182 183 183 185 186 187 187 186 184 183 182 181 180 179 179 178 178 180 182 187 194 204 218 231 244 256 265 273 278 281
185 185 185 185 185 185 185 184 184 182 181 181 180 179 178 178 177 176 176 177 177 176 175 174 175 177 178 178 178 179 181 181 182 182 183 183 183 183 183 183 182 182 182 182 181 180 179 178 176 176 176 176 177 178 180 181 185 189 196 203 213 223 235 248 259 268 274 280 283
183 183 183 183 183 183 183 183 182 181 179 178 177 176 175 174 174 173 172 172 174 175 175 174 174 174 175 175 175 176 178 179 180 180 181 182 182 182 181 180 179 178 177 176 175 174 174 173 173 173 174 175 177 179 182 187 192 199 207 215 224 236 245 257 268 277 283 288 291
181 181 181 181 180 180 180 180 179 178 176 174 173 172 171 170 170 170 169 170 172 173 174 173 173 172 172 172 172 172 174 177 178 179 179 179 178 177 176 175 174 173 172 171 170 170 171 172 173 174 175 177 179 183 189 196 204 211 220 229 239 250 259 269 279 287 293 297 298
178 178 177 176 176 176 176 175 174 173 171 170 169 168 167 166 166 166 167 168 170 171 172 172 171 170 169 169 169 170 172 174 176 177 176 175 174 173 172 172 171 170 169 169 169 171 173 174 175 177 178 179 182 189 198 209 218 225 232 239 248 258 267 276 285 292 296 299 301
173 172 171 171 172 172 171 170 169 167 166 165 165 164 164 164 164 164 164 165 167 168 169 169 169 168 167 168 169 170 171 173 174 174 173 173 172 171 171 171 171 170 170 172 174 175 177 177 177 178 179 180 187 198 211 221 228 234 237 240 241 246 255 266 277 286 292 296 299
166 166 166 167 167 167 166 165 164 163 162 161 162 162 163 162 162 162 162 162 163 164 164 165 165 166 167 168 170 171 171 171 170 170 170 170 171 171 171 171 173 174 177 180 182 184 185 183 180 178 179 184 194 205 214 220 227 233 237 237 237 238 243 252 265 276 283 288 292
162 162 162 163 163 163 162 161 160 160 160 160 161 162 162 162 161 161 160 159 160 160 161 162 164 165 167 168 169 170 170 169 168 168 167 168 169 171 172 174 177 180 185 187 190 192 194 194 191 187 186 188 193 198 202 208 215 224 230 235 236 240 246 254 264 271 275 278 281
159 159 159 160 160 159 158 158 158 159 160 161 161 161 161 161 161 160 159 158 158 159 160 162 164 165 166 167 167 167 167 167 167 167 167 168 170 172 175 179 183 187 190 192 194 197 200 201 202 202 200 198 198 198 199 200 204 211 220 228 236 244 252 260 266 268 267 263 265
156 156 156 156 156 155 156 157 158 159 160 161 161 161 160 160 160 159 159 158 159 160 162 163 164 164 165 165 165 165 165 166 167 168 169 170 171 174 178 184 189 192 193 194 197 200 203 205 207 210 211 210 209 208 207 207 207 209 214 223 234 244 254 261 264 263 257 253 256
153 153 152 153 153 153 155 157 158 159 160 160 160 160 160 159 159 159 159 160 161 162 162 162 163 163 163 164 165 166 166 168 169 170 171 172 174 176 181 188 193 195 195 197 200 204 207 209 212 214 217 218 219 219 219 218 217 217 218 223 232 241 249 254 254 253 251 254 259
150 150 150 150 151 153 155 157 157 158 158 159 159 158 158 158 159 159 160 161 161 161 161 161 161 161 162 163 165 166 167 168 170 171 172 174 175 177 181 189 196 200 201 203 207 211 214 216 217 219 220 222 223 224 225 225 224 222 221 223 227 234 240 242 244 246 251 259 267
148 149 149 150 151 153 154 155 156 156 156 156 156 156 156 157 158 159 160 160 160 160 160 160 160 161 162 163 164 165 165 167 168 170 172 174 174 174 177 186 200 208 210 212 216 219 220 220 219 219 220 222 223 225 226 227 226 223 220 219 222 228 234 239 243 248 256 264 272
148 149 150 150 150 151 152 153 153 153 153 153 153 154 155 156 157 158 158 158 158 158 159 159 160 160 161 161 162 162 163 165 167 169 171 173 173 172 175 183 199 212 219 220 220 219 217 216 215 215 216 218 221 223 225 227 226 223 219 219 221 227 233 240 246 253 260 267 272
149 149 149 148 148 148 149 150 151 151 151 151 151 152 153 154 155 156 156 157 156 156 157 158 158 158 158 158 159 160 161 162 165 167 168 170 171 172 176 183 197 211 220 221 216 212 209 208 209 211 212 215 218 221 225 227 227 225 223 221 223 228 235 242 249 255 262 268 272
148 147 146 145 145 146 147 148 149 149 149 149 149 149 150 150 152 153 155 155 155 155 156 156 156 155 154 154 154 155 156 157 158 160 161 164 167 173 179 185 194 205 214 215 210 205 203 202 204 207 210 213 217 221 227 231 232 232 229 228 229 234 239 245 252 258 264 270 274
146 145 144 144 144 144 146 147 148 148 147 146 146 147 148 149 151 153 154 154 154 153 152 152 151 149 148 148 148 149 150 152 153 155 158 162 169 176 181 185 192 199 207 208 204 200 200 201 204 207 212 217 222 228 234 239 240 238 237 236 238 242 246 251 257 262 268 273 277
145 144 143 143 143 144 145 146 147 146 146 145 145 147 149 151 153 153 153 152 151 149 147 145 144 143 143 145 147 150 153 156 158 162 169 176 181 185 185 186 190 196 202 205 204 202 203 207 211 215 222 228 234 240 246 250 250 249 247 247 246 248 252 256 261 265 270 274 278
144 143 142 142 143 144 145 146 147 146 146 146 148 149 151 153 154 153 152 150 147 145 144 143 143 144 146 149 152 155 159 162 166 173 181 191 195 195 191 187 187 191 198 205 211 215 219 224 229 234 239 244 249 254 259 262 262 259 256 254 253 253 254 258 262 266 270 273 277
144 143 143 143 144 145 146 147 148 148 148 149 150 152 153 153 153 151 149 147 145 143 143 144 145 147 149 152 155 159 164 170 176 184 192 202 205 203 198 193 190 192 198 207 216 227 237 244 250 255 258 262 265 267 269 270 268 265 261 258 258 257 258 260 262 265 267 271 274
144 144 145 145 145 147 148 149 150 149 150 151 152 153 154 152 151 149 147 145 143 141 141 142 144 146 150 155 161 167 176 185 192 197 202 207 209 209 206 204 201 200 205 213 223 235 246 255 262 266 270 272 274 274 273 273 270 266 264 263 262 262 261 262 263 264 267 269 273
146 147 147 148 148 149 150 150 151 151 151 151 152 153 152 151 148 146 144 143 141 140 140 142 144 150 158 168 176 183 191 200 207 209 209 210 212 213 213 214 213 215 218 226 235 244 252 259 264 267 271 274 276 276 274 273 270 268 266 266 265 265 265 265 265 266 267 270 272
148 150 150 150 150 151 150 150 150 151 152 152 151 151 151 149 146 144 143 143 144 146 149 151 155 163 174 185 191 196 203 209 213 214 214 214 215 219 221 224 226 227 232 240 248 254 259 262 264 265 268 272 274 275 274 271 270 267 266 266 265 266 267 268 268 268 269 270 271
150 152 152 152 152 151 150 149 149 150 151 151 150 150 150 149 147 147 148 150 153 157 162 166 171 179 189 198 205 208 211 213 215 216 219 221 224 229 235 238 240 242 244 250 256 261 265 268 267 265 264 268 271 272 271 269 266 265 264 265 265 266 266 268 268 267 267 267 267
Height
809 810 811 813 814 816 817 819 820 821 822 823 824 825 826 827 829 829 831 832 833 834 835 836 837 838 839 840 841 842 843 844 844 845 846 847 848 849 849 850 850 851 852 852 852 852 853 853 853 854 854 854 855 855 855 855 855 856 856 857 857 857 857 858 858 858 858 857 857
808 809 810 811 813 814 816 818 819 820 821 822 823 824 825 826 827 828 829 830 832 833 834 835 836 837 838 839 840 841 842 843 844 844 845 846 847 848 849 849 850 850 851 851 852 852 852 853 853 853 854 854 854 854 854 855 855 855 855 856 856 856 857 857 857 857 857 857 857
806 807 809 810 811 813 815 816 817 818 819 821 822 823 824 825 826 827 828 829 831 832 833 834 835 836 837 838 839 840 841 842 843 843 844 845 846 847 848 849 849 850 850 851 851 852 852 852 853 853 853 854 854 854 854 854 854 855 855 855 855 856 856 856 856 857 857 857 857
804 805 807 808 809 811 812 814 815 817 818 819 821 822 823 824 825 826 827 829 829 830 831 832 834 834 835 836 838 839 840 841 842 843 843 844 845 846 847 848 849 849 850 851 851 851 852 852 852 853 853 853 854 854 854 854 854 854 854 854 854 855 855 855 855 856 856 856 857
803 804 805 806 808 809 810 812 814 815 816 818 819 821 822 823 824 825 826 827 828 829 830 831 832 834 834 835 836 837 838 839 840 841 842 844 844 845 846 847 848 849 849 850 851 851 851 852 852 852 853 853 853 854 854 854 854 854 854 854 854 854 854 854 854 855 855 855 856
801 802 803 805 806 808 809 811 812 814 815 816 818 819 820 821 823 824 825 826 827 828 829 830 831 832 834 834 835 836 837 838 839 840 841 842 844 844 845 846 847 848 849 850 850 851 851 852 852 852 853 853 853 854 854 854 854 854 854 853 853 853 853 854 854 854 854 854 855
799 800 802 804 805 806 808 809 811 812 814 815 816 817 819 820 821 822 824 824 826 827 828 829 830 831 832 833 834 835 835 836 837 839 840 841 842 844 844 845 846 847 848 849 850 850 851 851 852 852 852 853 853 853 854 854 854 854 853 853 853 853 853 853 853 853 853 854 854
798 799 801 802 804 805 806 808 809 811 812 813 814 816 817 818 819 821 822 824 824 825 826 828 829 830 831 832 833 834 834 835 836 837 838 840 841 842 843 844 845 846 847 848 849 850 850 851 851 852 852 852 853 853 853 854 854 854 853 853 853 853 852 852 852 852 852 853 853
797 799 800 801 802 804 805 806 808 809 810 812 813 814 816 817 818 819 821 822 823 824 825 826 828 829 830 831 832 833 833 834 834 835 837 838 840 841 842 843 844 845 846 847 848 849 849 850 851 851 852 852 852 853 853 853 853 853 853 853 853 852 852 852 852 852 852 852 852
796 797 799 800 801 803 804 805 806 808 809 810 812 813 814 816 817 818 819 820 821 823 824 825 827 828 829 830 831 832 832 833 834 834 835 837 838 839 841 842 843 844 845 846 847 848 849 849 850 850 851 851 852 852 853 853 853 853 853 853 853 852 852 852 852 852 852 852 852
794 796 797 799 800 801 803 804 805 807 808 809 811 812 813 814 816 817 818 819 820 822 823 824 825 827 828 829 829 831 832 832 833 833 834 835 836 838 839 841 842 843 844 845 846 847 848 849 849 850 850 851 851 852 852 852 853 853 853 853 853 852 852 852 852 852 852 852 852
793 794 796 797 799 800 802 803 804 806 807 809 809 811 812 813 814 816 817 818 819 820 822 823 824 825 827 828 829 830 831 831 832 832 833 834 835 836 838 839 841 842 843 844 845 846 847 848 848 849 850 850 851 851 851 852 852 852 852 852 852 852 852 852 852 852 852 852 852
792 794 795 796 798 799 800 802 803 805 806 807 809 810 811 812 814 814 815 817 818 819 821 822 824 825 826 827 828 829 830 831 831 832 832 833 834 835 836 838 839 841 842 843 844 845 846 846 847 848 849 849 850 850 851 851 851 852 852 852 852 852 852 851 851 851 851 851 851
791 792 794 795 797 798 799 801 802 804 805 806 808 809 810 811 812 813 814 816 817 819 820 822 823 824 825 826 827 829 829 830 831 831 832 832 833 834 835 837 838 839 841 842 843 844 844 845 846 847 848 848 849 849 850 850 851 851 851 851 851 851 851 851 851 851 851 851 851
789 791 793 794 795 797 799 800 801 803 804 805 807 808 809 810 811 812 814 815 816 818 819 821 822 824 825 826 827 828 829 830 831 831 832 832 833 833 834 836 837 838 839 841 842 843 844 844 845 846 846 847 848 849 849 850 850 850 851 851 851 851 851 851 851 850 850 850 850
788 789 791 793 794 796 798 799 800 802 803 804 805 807 808 809 810 812 813 814 815 817 819 820 821 823 824 825 827 828 829 830 830 831 832 832 833 833 834 835 836 837 839 840 841 842 843 843 844 845 846 846 847 848 848 849 849 849 850 850 850 850 851 850 850 850 850 850 850
786 788 790 791 793 795 796 798 799 800 802 803 804 806 807 808 809 811 812 813 814 816 818 819 820 822 823 825 826 827 828 829 830 831 832 832 833 833 834 835 836 837 838 839 840 841 842 843 843 844 845 846 846 847 848 848 849 849 849 849 850 850 850 850 850 850 850 849 849
784 786 788 790 792 793 795 796 798 799 801 802 804 805 806 807 809 810 811 813 814 815 817 818 819 821 822 824 825 826 828 829 830 831 832 832 833 834 834 835 836 837 838 839 840 841 841 842 843 844 844 845 846 846 847 847 848 848 849 849 849 849 849 849 849 849 849 849 849
783 785 787 789 790 792 794 795 797 798 800 801 803 804 805 807 808 809 811 812 813 814 816 817 819 820 822 823 824 826 827 828 829 830 831 832 833 834 835 835 836 837 838 839 839 840 841 842 842 843 844 844 845 845 846 847 847 848 848 848 848 849 849 849 849 849 849 849 849
781 783 785 787 789 791 792 794 795 797 799 800 802 803 805 806 807 809 810 812 813 814 815 817 818 820 821 823 824 825 826 827 828 829 830 832 833 834 835 836 837 837 838 839 839 840 841 842 842 843 843 844 844 845 845 846 847 847 847 848 848 848 848 848 848 848 849 849 849
780 782 784 786 788 789 791 793 794 796 798 799 801 803 804 805 807 808 809 811 812 814 815 816 818 819 821 822 824 825 826 827 828 829 830 831 832 834 835 836 837 837 838 839 839 840 841 841 842 843 843 844 844 844 845 845 846 846 847 847 847 847 847 847 847 847 848 848 848
779 781 783 785 787 789 790 792 794 795 797 799 800 802 803 805 806 808 809 811 812 814 815 816 818 819 820 821 823 824 825 826 827 829 829 831 832 833 834 835 836 837 838 839 839 840 841 841 842 842 843 843 844 844 844 845 845 846 846 846 847 847 847 847 847 847 847 847 848
779 781 783 784 786 788 789 791 793 794 796 798 799 801 803 804 806 808 809 810 812 813 814 816 817 819 820 821 822 823 824 826 827 828 829 830 831 833 834 834 835 836 837 838 839 839 840 841 841 842 842 843 843 844 844 845 845 845 846 846 846 846 846 846 846 846 847 847 847
778 780 782 784 785 786 788 790 792 793 795 797 799 800 802 804 805 807 809 810 811 813 814 816 817 818 819 821 822 823 824 825 827 828 829 830 831 832 833 834 835 836 836 837 838 839 839 840 840 841 842 842 843 843 844 844 844 845 845 845 846 846 846 846 846 846 846 846 846
777 779 780 782 784 785 787 789 791 793 794 796 798 800 801 803 805 806 808 809 811 813 814 815 817 818 819 820 822 823 824 825 826 828 829 830 831 832 833 834 834 835 836 836 837 838 839 839 840 840 841 841 842 842 843 843 844 844 844 844 845 845 845 845 845 846 846 846 846
776 778 779 781 783 784 786 788 790 792 794 796 798 799 801 803 804 806 807 809 810 812 813 814 816 817 819 820 821 823 824 825 826 827 828 829 830 831 832 833 834 834 835 836 837 838 838 839 839 839 840 840 840 841 841 842 842 843 843 843 844 844 844 844 844 845 845 845 845
775 777 779 780 782 784 786 788 790 792 794 795 797 799 801 802 804 805 807 808 810 811 813 814 815 817 818 819 821 822 824 825 826 827 828 829 830 831 832 832 833 834 835 836 836 837 837 838 838 839 839 839 839 840 840 840 841 841 841 842 842 842 843 843 844 844 844 844 844
774 776 778 780 782 784 786 788 790 792 793 795 797 799 800 802 804 805 806 808 809 811 812 814 815 816 818 819 820 822 823 824 825 827 828 829 829 830 831 832 833 834 834 835 836 836 837 837 838 838 838 839 839 839 839 839 840 840 840 840 841 841 842 842 843 843 843 843 843
774 776 778 780 782 784 786 788 789 791 793 795 796 798 800 801 803 804 806 807 809 810 812 813 814 816 817 819 820 821 823 824 825 826 827 828 829 830 831 831 832 833 834 834 835 835 836 836 837 837 838 838 838 838 838 838 839 839 839 839 840 840 841 841 842 842 842 842 842
774 776 779 780 782 784 786 788 789 791 793 794 796 798 799 801 803 804 806 807 809 810 812 813 814 816 817 819 820 821 822 824 825 826 827 828 829 829 830 831 832 832 833 834 834 835 835 836 836 836 837 837 837 837 837 837 838 838 838 839 839 839 840 840 840 841 841 841 841
775 777 779 781 783 784 786 788 789 791 793 794 796 798 799 801 803 804 806 807 809 810 811 813 814 815 817 818 819 821 822 823 824 825 826 827 828 829 830 831 831 832 832 833 834 834 834 835 835 835 836 836 836 836 836 836 837 837 837 838 838 838 839 839 839 839 840 840 840
776 777 779 781 783 784 786 788 789 791 793 794 796 798 799 801 803 804 806 807 809 810 811 813 814 815 817 818 819 821 822 823 824 825 826 827 828 829 829 830 831 831 832 832 833 833 834 834 834 834 835 835 835 835 835 835 836 836 836 837 837 837 838 838 838 839 839 839 839
776 778 779 781 783 785 787 788 790 791 793 795 796 798 799 801 803 804 806 807 809 810 811 813 814 815 817 818 819 820 821 823 824 824 825 826 827 828 829 829 830 831 831 832 832 833 833 833 833 834 834 834 834 834 834 834 835 835 835 836 836 836 837 837 837 838 838 838 838
777 778 780 781 783 785 787 789 790 792 793 795 797 798 800 801 803 804 806 807 809 810 811 813 814 815 816 818 819 820 821 822 823 824 825 826 827 828 828 829 829 830 831 831 831 832 832 832 833 833 833 833 833 833 834 834 834 834 834 834 835 835 836 836 836 836 836 836 836
777 779 780 782 784 785 787 789 790 792 794 795 797 799 800 801 803 804 806 807 809 810 812 813 814 815 816 818 819 820 821 822 823 824 824 825 826 827 828 829 829 829 830 830 831 831 831 831 832 832 832 832 832 832 833 833 833 833 833 834 834 834 834 835 835 835 835 835 835
778 779 780 782 784 785 787 789 790 792 794 795 797 799 800 802 803 805 806 808 809 810 812 813 814 815 817 818 819 820 821 822 823 823 824 825 826 826 827 828 828 829 829 830 830 830 830 831 831 831 831 831 831 831 832 832 832 832 832 833 833 833 833 834 834 834 834 834 834
778 779 780 782 784 785 787 789 791 792 794 796 797 799 800 802 804 805 806 808 809 810 812 813 814 815 816 817 819 819 820 821 822 823 824 824 825 826 826 827 828 828 829 829 829 829 829 830 830 830 830 830 830 830 831 831 831 831 831 831 832 832 832 832 833 833 833 833 833
779 780 781 782 784 786 788 789 791 793 794 796 798 799 801 802 804 805 807 808 809 810 811 813 814 815 816 817 818 819 820 821 821 822 823 824 824 825 825 826 827 827 828 828 828 829 829 829 829 829 829 829 829 829 829 829 830 830 830 830 830 830 831 831 831 831 831 831 831
779 780 781 783 784 786 788 790 792 793 795 796 798 799 801 803 804 805 807 808 809 810 811 812 814 815 816 817 818 819 819 820 821 822 822 823 824 824 824 825 826 826 827 827 827 828 828 828 828 828 828 828 828 828 828 829 829 829 829 829 829 829 829 829 829 830 830 830 830
780 781 782 784 785 787 789 791 792 794 795 797 798 800 801 803 804 805 807 808 809 810 811 812 814 814 815 816 817 818 819 820 820 821 822 822 823 823 824 824 824 825 825 826 826 826 827 827 827 827 827 827 827 827 827 827 827 827 827 827 827 828 828 828 828 828 828 829 829
781 782 783 785 786 788 789 791 793 794 796 797 799 800 801 803 804 805 807 808 809 810 811 812 813 814 815 816 817 818 818 819 820 820 821 821 822 822 823 823 823 824 824 824 825 825 825 826 826 826 826 826 826 826 826 826 826 826 826 826 826 826 826 826 827 827 827 827 828